Startpagina
METAR-TAF:

METAR-TAF

Vliegvelden :

Irene, Zuid-Afrika

breedte: 25-54-36S, lengte: 28-12-40E, hoogte: 1523 m

Actueel weer

Dit bericht is 4 uur en het 33 minuten geleden gemaakt, om 09:20 UTC
Wind 5 kt uit het noorden
Temperatuur 25°C
Vochtigheid 54%
Druk 1024 hPa
Zicht 10 km of meer
Gebroken wolken op 2500 ft

METAR: FAIR 190920Z 36005KT 9999 BKN025 25/15 Q1024

Tijdstip: 15:53 (13:53 UTC)


TAF: ontbreekt

Waarnemingen en weersverwachtingen van meer dan 4000 vliegvelden (METAR en TAF).

De beschikbare stations zijn de gele en rode punten op de kaart.

Ga met uw muis naar het station om de naam te zien.

Klik dan om waarnemingen en weersverwachtingen te zien.

kaart wijzigen: klik op de groene knoppen met een zwart kruis om in te zoomen, op de groene knop met een streepje om uit te zoomen of op de groene pijlen voor aangrenzende kaarten.


METAR-TAF: